Weather History for Aurora, OR

Change the Weather History Date:

Thursday, January 2, 2014

  Actual Average Record
Temperature  
Mean Temperature 40 °F -  
Max Temperature 46 °F - 57 °F (2003)
Min Temperature 36 °F - 24 °F (2013)
Degree Days  
Heating Degree Days 24    
Month to date heating degree days 48  
Since 1 July heating degree days 2085  
Cooling Degree Days 0    
Month to date cooling degree days 0  
Year to date cooling degree days 0  
Moisture  
Dew Point 38 °F    
Average Humidity 93    
Maximum Humidity 100    
Minimum Humidity 86    
Precipitation  
Precipitation 0.09 in - 1.15 in (1966)
Month to date precipitation 0.09  
Year to date precipitation 0.09  
Sea Level Pressure  
Sea Level Pressure 30.19 in    
Wind  
Wind Speed 3 mph (South)    
Max Wind Speed 9 mph    
Max Gust Speed 13 mph    
Visibility 3 miles    
Events Fog , Rain    
T = Trace of Precipitation, MM = Missing Value Source: NWS Daily Summary

Daily Weather History Graph

Daily Weather History Graph

Search for Another Location

Airport:

Trip Planner

Search our weather history database for the weather conditions in past years. The results will help you decide how hot, cold, wet, or windy it might be!

Date:

Astronomy

Jan. 02, 2014 Rise Set
Actual Time 7:50 AM PST 4:40 PM PST
Civil Twilight 7:16 AM PST 5:14 PM PST
Nautical Twilight 6:39 AM PST 5:51 PM PST
Astronomical Twilight 6:03 AM PST 6:27 PM PST
Moon 8:30 AM PST (1/2) 6:50 PM PST (1/2)
Length of Visible Light 9h 57m
Length of Day
8h 50m
Waxing Crescent, 3% of the Moon is Illuminated
Jan 2
Waxing Crescent
Jan 7
First Quarter
Jan 15
Full
Jan 23
Last Quarter
Jan 30
New

Hourly Weather History & Observations

Time (PST) Temp. Windchill Dew Point Humidity Pressure Visibility Wind Dir Wind Speed Gust Speed Precip Events Conditions
12:53 AM 39.0 °F - 39.0 °F 100% 30.29 in 0.5 mi Calm Calm - N/A Fog Fog
1:53 AM 39.0 °F 35.7 °F 39.0 °F 100% 30.29 in 0.5 mi SSE 4.6 mph - N/A Fog Fog
2:53 AM 37.0 °F 34.5 °F 37.0 °F 100% 30.30 in 0.5 mi SSE 3.5 mph - N/A Fog Fog
3:23 AM 37.0 °F 34.5 °F 37.0 °F 100% 30.28 in 0.2 mi South 3.5 mph - N/A Fog Fog
3:32 AM 37.0 °F - 37.0 °F 100% 30.28 in 0.5 mi Calm Calm - N/A Fog Fog
3:53 AM 37.0 °F 34.5 °F 37.0 °F 100% 30.29 in 0.2 mi South 3.5 mph - N/A Fog Fog
4:15 AM 37.0 °F 32.4 °F 37.0 °F 100% 30.27 in 0.5 mi SSE 5.8 mph - N/A Fog Fog
4:53 AM 36.0 °F 33.3 °F 36.0 °F 100% 30.27 in 0.5 mi South 3.5 mph - N/A Fog Fog
5:53 AM 36.0 °F 32.1 °F 36.0 °F 100% 30.26 in 0.8 mi South 4.6 mph - N/A   Mist
6:01 AM 36.0 °F 32.1 °F 36.0 °F 100% 30.25 in 1.2 mi South 4.6 mph - N/A   Overcast
6:32 AM 36.0 °F - 36.0 °F 100% 30.26 in 0.8 mi Calm Calm - N/A   Mist
6:53 AM 36.0 °F - 36.0 °F 100% 30.26 in 0.8 mi Calm Calm - N/A   Mist
7:00 AM 36.0 °F - 36.0 °F 100% 30.25 in 1.0 mi Calm Calm - N/A   Mist
7:22 AM 36.0 °F - 36.0 °F 100% 30.25 in 0.8 mi Calm Calm - N/A   Mist
7:53 AM 36.0 °F - 36.0 °F 100% 30.25 in 0.8 mi Calm Calm - N/A   Mist
8:13 AM 36.0 °F - 36.0 °F 100% 30.24 in 1.0 mi Calm Calm - N/A   Overcast
8:35 AM 36.0 °F 33.3 °F 36.0 °F 100% 30.24 in 0.5 mi SSE 3.5 mph - N/A Fog Fog
8:50 AM 35.6 °F 32.8 °F 35.6 °F 100% 30.24 in 0.2 mi South 3.5 mph - N/A Fog Fog
8:53 AM 36.0 °F - 36.0 °F 100% 30.25 in 0.2 mi Calm Calm - N/A Fog Fog
9:28 AM 36.0 °F - 36.0 °F 100% 30.25 in 0.5 mi Calm Calm - N/A Fog Fog
9:53 AM 36.0 °F 33.3 °F 36.0 °F 100% 30.26 in 0.8 mi SSW 3.5 mph - N/A   Overcast
10:00 AM 36.0 °F - 36.0 °F 100% 30.25 in 1.0 mi Calm Calm - N/A   Overcast
10:11 AM 37.0 °F - 37.0 °F 100% 30.24 in 0.5 mi Calm Calm - N/A Fog Fog
10:40 AM 37.0 °F - 37.0 °F 100% 30.24 in 0.2 mi Calm Calm - N/A Fog Fog
10:53 AM 37.0 °F 33.3 °F 37.0 °F 100% 30.24 in 0.2 mi South 4.6 mph - N/A Fog Fog
11:00 AM 37.0 °F - 37.0 °F 100% 30.23 in 0.8 mi Calm Calm - N/A   Overcast
11:11 AM 37.0 °F 34.5 °F 37.0 °F 100% 30.23 in 1.5 mi Variable 3.5 mph - N/A   Overcast
11:32 AM 37.9 °F - 37.0 °F 97% 30.22 in 2.5 mi Calm Calm - N/A   Overcast
11:40 AM 37.0 °F 34.5 °F 37.0 °F 100% 30.21 in 4.0 mi SSW 3.5 mph - N/A   Overcast
11:53 AM 37.9 °F - 37.9 °F 100% 30.21 in 3.0 mi Calm Calm - N/A   Overcast
12:53 PM 39.0 °F 35.7 °F 39.0 °F 100% 30.19 in 4.0 mi South 4.6 mph - N/A   Overcast
1:23 PM 39.0 °F 35.7 °F 39.0 °F 100% 30.16 in 2.0 mi South 4.6 mph - N/A   Overcast
1:34 PM 39.0 °F 35.7 °F 39.0 °F 100% 30.15 in 3.0 mi SSE 4.6 mph - N/A   Overcast
1:53 PM 39.9 °F 35.8 °F 39.0 °F 97% 30.15 in 3.0 mi South 5.8 mph - N/A   Overcast
2:23 PM 41.0 °F 39.0 °F 39.0 °F 93% 30.13 in 4.0 mi SW 3.5 mph - N/A   Overcast
2:53 PM 39.9 °F - 39.0 °F 97% 30.13 in 8.0 mi Calm Calm - N/A   Overcast
3:53 PM 41.0 °F - 39.0 °F 93% 30.12 in 8.0 mi Calm Calm - N/A   Mostly Cloudy
4:11 PM 41.0 °F - 39.0 °F 93% 30.11 in 7.0 mi Calm Calm - N/A   Scattered Clouds
4:23 PM 39.9 °F 36.7 °F 39.0 °F 97% 30.11 in 7.0 mi SSE 4.6 mph - N/A   Mostly Cloudy
4:32 PM 39.9 °F 37.8 °F 39.0 °F 97% 30.11 in 7.0 mi South 3.5 mph - N/A   Scattered Clouds
4:42 PM 39.9 °F 37.8 °F 39.0 °F 97% 30.11 in 7.0 mi South 3.5 mph - N/A   Mostly Cloudy
4:53 PM 39.9 °F 36.7 °F 39.0 °F 97% 30.12 in 6.0 mi South 4.6 mph - N/A   Mostly Cloudy
5:53 PM 39.9 °F - 39.0 °F 97% 30.11 in 6.0 mi Calm Calm - N/A   Scattered Clouds
6:53 PM 39.9 °F - 39.0 °F 97% 30.10 in 4.0 mi Calm Calm - N/A   Mostly Cloudy
7:22 PM 39.9 °F 37.8 °F 39.0 °F 97% 30.09 in 4.0 mi SW 3.5 mph - N/A   Scattered Clouds
7:53 PM 41.0 °F 35.8 °F 39.9 °F 96% 30.08 in 8.0 mi South 8.1 mph - N/A   Overcast
8:53 PM 39.9 °F 36.7 °F 39.0 °F 97% 30.07 in 5.0 mi SW 4.6 mph - N/A   Overcast
9:53 PM 46.0 °F 42.5 °F 42.1 °F 86% 30.06 in 10.0 mi SSW 6.9 mph - N/A   Overcast
10:53 PM 45.0 °F 41.8 °F 42.1 °F 90% 30.07 in 10.0 mi SSW 5.8 mph - 0.00 in   Overcast
11:00 PM 45.0 °F 42.6 °F 42.1 °F 90% 30.07 in 10.0 mi SW 4.6 mph - N/A   Overcast
11:23 PM 42.1 °F 38.4 °F 41.0 °F 96% 30.09 in 2.0 mi WSW 5.8 mph - 0.04 in Rain Rain
11:46 PM 42.1 °F - 41.0 °F 96% 30.10 in 4.0 mi Calm Calm - 0.07 in Rain Light Rain
11:53 PM 42.1 °F - 41.0 °F 96% 30.11 in 2.5 mi Calm Calm - 0.08 in Rain Rain